Weather History for Detroit Metro, MI

Change the Weather History Date:

Sunday, May 12, 2013

  Actual Average Record
Temperature  
Mean Temperature 44 °F 58 °F  
Max Temperature 52 °F 69 °F 90 °F (1881)
Min Temperature 36 °F 48 °F 32 °F (1934)
Degree Days  
Heating Degree Days 21 8  
Month to date heating degree days 48 109  
Since 1 July heating degree days 5817 6003  
Cooling Degree Days 0 1  
Month to date cooling degree days 11 7  
Year to date cooling degree days 11 13  
Moisture  
Dew Point 28 °F    
Average Humidity 61    
Maximum Humidity 82    
Minimum Humidity 39    
Precipitation  
Precipitation T in 0.10 in 1.48 in (2002)
Month to date precipitation 0.25 1.22  
Year to date precipitation 12.56 10.38  
Snow  
Snow 0.00 in 0.00 in 0.00 in ()
Month to date snowfall 0.0 0.0  
Since 1 July snowfall 47.7 42.5  
Snow Depth 0.00 in    
Sea Level Pressure  
Sea Level Pressure 29.98 in    
Wind  
Wind Speed 14 mph (West)    
Max Wind Speed 26 mph    
Max Gust Speed 36 mph    
Visibility 10 miles    
Events Rain    
T = Trace of Precipitation, MM = Missing Value Source: NWS Daily Summary

Daily Weather History Graph

Daily Weather History Graph

Search for Another Location

Airport:

Trip Planner

Search our weather history database for the weather conditions in past years. The results will help you decide how hot, cold, wet, or windy it might be!

Date:

Astronomy

May. 12, 2013 Rise Set
Actual Time 6:15 AM EDT 8:44 PM EDT
Civil Twilight 5:43 AM EDT 9:16 PM EDT
Nautical Twilight 5:03 AM EDT 9:56 PM EDT
Astronomical Twilight 4:19 AM EDT 10:41 PM EDT
Moon 8:08 AM EDT (5/12) 11:11 PM EDT (5/12)
Length of Visible Light 15h 33m
Length of Day
14h 29m
Waxing Crescent, 6% of the Moon is Illuminated
May 12
Waxing Crescent
May 18
First Quarter
May 25
Full
May 31
Last Quarter
Jun 8
New

Hourly Weather History & Observations

Time (EDT) Temp. Windchill Dew Point Humidity Pressure Visibility Wind Dir Wind Speed Gust Speed Precip Events Conditions
12:53 AM 39.9 °F 33.9 °F 33.1 °F 77% 29.93 in 10.0 mi SSW 9.2 mph - N/A   Partly Cloudy
1:53 AM 39.0 °F 32.3 °F 33.1 °F 79% 29.93 in 10.0 mi SW 10.4 mph - N/A   Clear
2:53 AM 37.9 °F 32.1 °F 32.0 °F 79% 29.92 in 10.0 mi SW 8.1 mph - N/A   Clear
3:53 AM 39.0 °F 31.8 °F 32.0 °F 76% 29.91 in 10.0 mi SW 11.5 mph - N/A   Clear
4:53 AM 37.9 °F 30.9 °F 30.9 °F 76% 29.90 in 10.0 mi SW 10.4 mph - N/A   Clear
5:53 AM 37.9 °F 30.5 °F 30.9 °F 76% 29.90 in 10.0 mi SW 11.5 mph - N/A   Partly Cloudy
6:41 AM 39.2 °F 30.5 °F 30.2 °F 70% 29.90 in 10.0 mi WSW 16.1 mph 21.9 mph N/A   Mostly Cloudy
6:53 AM 39.0 °F 30.3 °F 30.9 °F 73% 29.91 in 10.0 mi WSW 16.1 mph 24.2 mph N/A   Mostly Cloudy
7:53 AM 39.9 °F 30.2 °F 28.0 °F 63% 29.92 in 10.0 mi West 20.7 mph 29.9 mph N/A   Mostly Cloudy
8:30 AM 41.0 °F 33.5 °F 28.4 °F 61% 29.92 in 10.0 mi West 13.8 mph 23.0 mph N/A   Mostly Cloudy
8:53 AM 41.0 °F 33.9 °F 28.0 °F 60% 29.94 in 10.0 mi West 12.7 mph 24.2 mph N/A   Mostly Cloudy
9:53 AM 43.0 °F 34.2 °F 28.0 °F 56% 29.95 in 10.0 mi West 20.7 mph 28.8 mph N/A   Mostly Cloudy
10:53 AM 44.1 °F 36.2 °F 27.0 °F 51% 29.96 in 10.0 mi West 18.4 mph 28.8 mph N/A   Mostly Cloudy
11:53 AM 45.0 °F 37.6 °F 27.0 °F 49% 29.97 in 10.0 mi West 17.3 mph 25.3 mph N/A   Mostly Cloudy
12:53 PM 46.9 °F - 27.0 °F 46% 29.96 in 10.0 mi West 16.1 mph 27.6 mph N/A   Mostly Cloudy
1:53 PM 48.0 °F - 27.0 °F 44% 29.97 in 10.0 mi West 15.0 mph 25.3 mph N/A   Mostly Cloudy
2:53 PM 48.9 °F - 26.1 °F 41% 29.97 in 10.0 mi West 21.9 mph 31.1 mph N/A   Mostly Cloudy
3:53 PM 50.0 °F - 26.1 °F 39% 29.99 in 10.0 mi West 18.4 mph 33.4 mph N/A   Overcast
4:53 PM 48.0 °F - 27.0 °F 44% 30.00 in 10.0 mi West 24.2 mph 31.1 mph N/A   Mostly Cloudy
5:53 PM 46.0 °F 38.5 °F 27.0 °F 47% 30.02 in 10.0 mi West 19.6 mph 34.5 mph N/A   Mostly Cloudy
6:53 PM 45.0 °F 37.9 °F 25.0 °F 46% 30.04 in 10.0 mi West 16.1 mph 28.8 mph N/A   Mostly Cloudy
7:53 PM 44.1 °F 37.1 °F 23.0 °F 43% 30.06 in 10.0 mi West 15.0 mph 24.2 mph N/A   Mostly Cloudy
8:53 PM 43.0 °F 36.0 °F 25.0 °F 49% 30.08 in 10.0 mi WNW 13.8 mph 23.0 mph 0.00 in Rain Light Rain
9:53 PM 39.0 °F 34.0 °F 24.1 °F 55% 30.10 in 10.0 mi WNW 6.9 mph - N/A   Partly Cloudy
10:53 PM 37.0 °F 32.4 °F 24.1 °F 59% 30.11 in 10.0 mi WNW 5.8 mph - N/A   Partly Cloudy
11:53 PM 37.9 °F - 23.0 °F 55% 30.11 in 10.0 mi Calm Calm - N/A   Clear